Lid_Strength_Index
5 6 6 7 8 9 9 9 8 8 9 9 9 9 9 9 9 9 9 9 9 9 9 10 10 10 11 11 11 11 11 11 13 11 10 9 9 9 8 8 8 8 8
6 7 7 8 9 10 9 9 9 9 9 10 10 10 10 10 9 9 10 9 10 10 10 11 11 11 11 11 11 11 11 11 12 13 10 10 9 8 9 9 8 8 9
7 8 8 9 10 10 10 9 9 10 10 10 10 10 10 10 10 10 10 10 10 10 10 11 11 12 12 12 11 11 11 11 11 11 11 10 9 8 8 7 7 6 6
8 9 9 9 10 10 10 10 10 10 10 10 10 10 10 11 11 10 10 10 10 10 10 11 11 12 12 12 12 11 11 12 12 12 11 10 8 6 6 6 7 5 5
9 9 9 9 10 11 11 11 10 11 11 11 10 10 10 11 11 11 11 11 11 11 11 11 11 12 13 13 13 12 12 12 12 12 11 9 7 6 5 4 5 5 4
9 10 10 10 11 11 11 11 11 11 11 11 11 11 11 11 14 14 13 12 11 11 12 11 11 12 12 13 12 12 12 12 12 11 9 8 6 5 3 3 4 6 7
9 10 10 10 11 11 11 12 12 11 11 11 11 11 11 11 14 14 14 12 11 11 12 12 12 12 12 11 12 12 11 10 10 9 8 7 5 3 2 3 3 5 6
10 10 11 11 11 11 12 12 12 11 11 11 11 11 11 11 15 14 14 12 11 11 11 12 11 12 12 13 13 12 10 9 7 6 6 5 3 1 2 2 2 4 5
10 11 11 11 11 12 12 12 12 12 12 11 11 11 11 12 14 14 14 12 12 12 12 11 11 12 13 14 14 14 12 10 7 6 5 4 2 2 2 2 4 5 7
10 11 11 11 11 12 12 12 12 12 12 12 12 11 13 12 13 14 14 13 13 13 12 12 12 12 14 14 14 13 13 11 9 6 5 3 2 1 2 2 3 6 6
9 10 11 11 12 12 12 12 12 13 12 12 12 11 12 12 12 14 14 14 14 14 14 13 12 13 13 14 14 13 12 11 8 6 5 3 3 2 1 1 2 3 5
10 11 11 11 13 13 12 12 13 13 13 12 12 12 12 11 13 13 14 15 14 14 14 13 13 14 14 14 14 13 12 10 7 6 5 4 4 3 2 2 2 2 2
10 11 12 12 13 13 13 13 13 13 13 13 13 13 13 12 12 13 14 14 14 13 13 13 14 14 14 13 13 13 12 9 8 8 7 5 3 3 3 2 2 2 3
11 11 12 13 13 13 13 13 13 13 13 13 13 14 13 13 12 12 13 13 14 13 13 13 14 14 13 13 12 11 10 10 9 9 8 5 3 3 3 3 4 3 3
11 12 13 13 13 13 13 13 13 12 13 13 13 14 14 14 13 15 15 15 14 14 15 14 13 13 14 13 13 12 11 10 9 8 8 7 5 5 4 3 4 4 5
12 13 13 12 12 12 13 13 15 15 15 16 16 15 14 15 15 16 16 16 16 16 16 15 14 14 14 14 14 13 12 11 9 9 9 9 8 6 6 5 5 6 6
12 13 12 13 12 12 13 13 13 14 16 16 16 16 16 16 16 16 16 16 16 16 15 14 14 14 14 14 14 13 13 11 10 10 9 10 8 8 7 7 7 6 7
12 14 12 12 12 12 13 13 13 14 14 14 15 16 16 17 17 17 17 17 15 15 14 14 14 14 14 13 13 13 12 11 11 10 11 10 9 9 8 8 8 8 8
12 12 12 11 12 13 13 13 13 14 14 14 14 15 15 17 17 17 17 15 15 15 14 14 14 14 14 13 13 12 12 12 11 11 11 11 10 9 9 9 9 8 8
12 12 12 12 13 14 13 14 14 14 14 15 15 14 14 15 15 15 15 14 14 15 14 14 14 14 14 13 13 12 12 12 11 11 11 11 10 9 10 10 10 10 9
11 13 13 13 14 13 13 14 14 14 15 15 14 14 17 17 16 15 15 14 14 14 14 14 14 14 13 13 13 13 13 12 11 11 11 11 11 11 10 10 10 10 10
11 12 14 14 14 14 14 14 14 15 15 15 14 14 17 17 15 15 15 14 14 14 14 14 14 14 14 14 14 13 13 13 11 12 11 12 12 11 11 11 11 10 11
12 13 13 14 14 14 14 14 14 15 14 14 14 15 15 15 15 15 14 14 14 14 13 14 14 14 14 13 13 13 13 13 12 12 12 13 13 12 12 12 12 12 11
12 13 14 14 14 14 14 14 14 15 15 15 14 14 15 15 14 14 14 13 13 13 13 14 14 15 15 14 13 13 12 12 12 13 14 13 14 13 12 12 13 13 12
12 13 13 13 14 14 14 15 14 14 14 14 14 14 14 14 14 14 13 13 14 14 14 14 14 14 15 15 14 14 14 14 14 15 15 15 14 14 14 13 13 13 13
13 13 13 13 13 14 14 14 14 14 15 15 14 14 14 14 14 13 13 13 14 14 14 14 14 15 14 14 14 13 15 15 15 16 16 15 16 15 14 13 13 13 13